Content
SEND FEEDBACK

Daily
Averages
Monthly
Summary
Mexico

CANCUN, QUINTANA ROO


Home > North America > Mexico > Quintana Roo
Elevation: 9 meters     Latitude: 21 09N     Longitude: 086 49W

WEATHER
 
SELECT A DAY
Number of Records: 165,850;   Date Range: 1/1/95 - 9/30/14
 
SHARE

PRINT THIS DATA

[ ← Previous Day ]
WEATHER ALMANAC - 18 AUGUST, 2014
[ Next Day → ]
[ °F ]   °C
Weather ElementAverageHighLow
Temperature29.7 °C33 °C (2:45 pm)27 °C (3:48 am)
Dewpoint24.6 °C25 °C (9:47 pm)23 °C (12:45 am)
Humidity74.7 %89 % (1:44 am)59 % (12:46 pm)
Barometer1014.9 hPa1015.9 hPa (10:46 pm)1013.2 hPa (4:00 am)
Wind Speed12.7 km/h24.1 km/h (12:48 pm)
Weather ElementAverage
Visibility11.3 km
Wind DirectionESE (95.8 °)

Weather ElementTotal
Precipitation---
Cooling Degree Days11.7 (Base 18.3)
Growing Degree Days20 (Base 10)
Averaged from 24 records on 18 August, 2014
WEATHER CONDITIONS BREAKOUT
WIND DIRECTION BREAKOUT
WEATHER BY HOUR - 18 AUGUST, 2014
[ °F ]   °C
Local TimeTemperatureDewpointHumidityBarometerVisibilityWind DirectionWind SpeedGust SpeedPrecipitationEventsConditions
12:42 AM28 °C25 °C84 %1015.2 hPa11.3 kmENE (60°)5.6 km/hPartly Cloudy
1:45 AM28 °C25 °C84 %1015.9 hPa11.3 kmNE (50°)3.7 km/hPartly Cloudy
2:50 AM27 °C25 °C89 %1015.2 hPa11.3 kmENE (70°)5.6 km/hPartly Cloudy
3:44 AM27 °C25 °C89 %1013.9 hPa11.3 kmENE (70°)5.6 km/hPartly Cloudy
4:41 AM27 °C25 °C89 %1014.6 hPa11.3 kmNE (50°)3.7 km/hPartly Cloudy
5:47 AM28 °C24 °C79 %1014.9 hPa11.3 kmENE (60°)7.4 km/hPartly Cloudy
6:48 AM28 °C25 °C84 %1014.2 hPa11.3 kmEast (100°)9.3 km/hScattered Clouds
7:46 AM30 °C25 °C74 %1015.2 hPa11.3 kmESE (110°)16.7 km/hScattered Clouds
8:50 AM30 °C25 °C74 %1015.9 hPa11.3 kmESE (120°)18.5 km/hMostly Cloudy
9:47 AM31 °C25 °C70 %1015.2 hPa11.3 kmESE (120°)22.2 km/hMostly Cloudy
10:43 AM32 °C24 °C62 %1015.9 hPa11.3 kmSSE (150°)24.1 km/hScattered Clouds
11:43 AM32 °C23 °C59 %1015.6 hPa11.3 kmSE (130°)22.2 km/hScattered Clouds
12:42 PM32 °C24 °C62 %1014.6 hPa11.3 kmSE (130°)20.4 km/hScattered Clouds
1:45 PM33 °C24 °C59 %1014.6 hPa11.3 kmESE (120°)20.4 km/hScattered Clouds
2:43 PM32 °C24 °C62 %1014.2 hPa11.3 kmESE (120°)20.4 km/hScattered Clouds
3:42 PM32 °C24 °C62 %1013.2 hPa11.3 kmSE (130°)20.4 km/hScattered Clouds
4:42 PM31 °C24 °C66 %1013.9 hPa11.3 kmESE (120°)14.8 km/hScattered Clouds
5:50 PM31 °C25 °C70 %1013.5 hPa11.3 kmESE (120°)13 km/hScattered Clouds
6:46 PM29 °C24 °C74 %1013.2 hPa11.3 kmEast (100°)9.3 km/hScattered Clouds
7:42 PM29 °C25 °C79 %1014.2 hPa11.3 kmEast (90°)9.3 km/hScattered Clouds
8:45 PM29 °C25 °C79 %1015.2 hPa11.3 kmEast (90°)13 km/hScattered Clouds
9:42 PM29 °C25 °C79 %1015.2 hPa11.3 kmEast (100°)7.4 km/hClear
10:43 PM28 °C25 °C84 %1015.2 hPa11.3 kmCalmClear
11:43 PM29 °C25 °C79 %1015.6 hPa11.3 kmEast (90°)11.1 km/hScattered Clouds
Hourly data recorded from MMUN, located 0 kilometers away from Cancun, Quintana Roo







STORIES FROM OUR PARTNERS